DW9005 Weather Reports


time (UTC)temp
C
wind
direction
speed
KPH
gust
KPH
rain 1hr
cm
rain 24hr
cm
rain mn
cm
humidity
%
barometer
mb
20260504034510 10 244 0.0 0.0 0.00 0.00 0.00 88 1019.5
20260504033009 10 244 0.0 0.0 0.00 0.00 0.00 87 1019.4
20260504031552 10 244 0.0 0.0 0.00 0.00 0.00 85 1019.5
20260504030050 11 244 0.0 0.0 0.00 0.00 0.00 84 1019.3
20260504024534 11 244 0.0 0.0 0.00 0.00 0.00 82 1019.1
20260504023033 11 244 0.0 0.0 0.00 0.00 0.00 81 1019.0
20260504021515 12 244 0.0 0.0 0.00 0.00 0.00 78 1018.9
20260504020023 12 244 0.0 0.0 0.00 0.00 0.00 76 1018.8
20260504014601 13 244 0.0 0.0 0.00 0.00 0.00 74 1018.8
20260504013118 13 244 0.0 0.0 0.00 0.00 0.00 71 1018.5
20260504011539 14 244 0.0 0.0 0.00 0.00 0.00 69 1018.6
20260504010041 15 244 0.0 0.0 0.00 0.00 0.00 66 1018.4
20260504004521 16 244 0.0 0.0 0.00 0.00 0.00 63 1018.2
20260504003020 17 244 0.0 0.0 0.00 0.00 0.00 56 1018.1
20260504001520 18 246 0.0 0.0 0.00 0.00 0.00 52 1018.1
20260504000008 19 242 0.0 0.0 0.00 0.00 0.00 46 1018.1
20260503234507 20 309 0.0 0.0 0.00 0.00 0.00 45 1018.1
20260503233011 20 327 0.0 0.0 0.00 0.00 0.00 41 1018.0
20260503231505 20 309 0.0 0.0 0.00 0.00 0.00 40 1018.1
20260503230013 21 303 0.0 0.0 0.00 0.00 0.00 39 1018.3
20260503224503 21 269 0.0 0.0 0.00 0.00 0.00 38 1018.3
20260503223003 21 270 0.0 0.0 0.00 0.00 0.00 39 1018.3
20260503221557 21 275 0.0 0.0 0.00 0.00 0.00 39 1018.4
20260503220043 21 288 0.0 0.0 0.00 0.00 0.00 40 1018.5
20260503214536 21 294 0.0 0.0 0.00 0.00 0.00 38 1018.7
20260503213024 21 294 0.0 0.0 0.00 0.00 0.00 38 1018.7
20260503211505 21 313 0.0 0.0 0.00 0.00 0.00 38 1018.9
20260503210006 20 347 0.0 0.0 0.00 0.00 0.00 40 1019.0
20260503204606 20 288 0.0 0.0 0.00 0.00 0.00 40 1019.2
20260503203047 20 307 0.0 0.0 0.00 0.00 0.00 41 1019.4
20260503201535 20 277 0.0 0.0 0.00 0.00 0.00 45 1019.6
20260503200034 20 35 0.0 0.0 0.00 0.00 0.00 43 1019.9
20260503194536 20 315 0.0 0.0 0.00 0.00 0.00 42 1020.2
20260503193042 20 272 0.0 0.0 0.00 0.00 0.00 41 1020.5
20260503191558 19 311 0.0 0.0 0.00 0.00 0.00 44 1020.8
20260503190032 19 300 0.0 0.0 0.00 0.00 0.00 43 1021.0
20260503184526 20 270 0.0 0.0 0.00 0.00 0.00 44 1021.3
20260503183026 19 179 0.0 0.0 0.00 0.00 0.00 41 1021.4
20260503181507 19 293 0.0 0.0 0.00 0.00 0.00 45 1021.6
20260503180006 18 257 0.0 0.0 0.00 0.00 0.00 45 1021.7
20260503174605 18 188 0.0 0.0 0.00 0.00 0.00 44 1021.8
20260503173046 18 339 0.0 0.0 0.00 0.00 0.00 44 1021.9
20260503171543 18 293 0.0 0.0 0.00 0.00 0.00 48 1022.1
20260503081527 6 355 0.0 0.0 0.00 0.00 0.00 93 1020.1
20260503080108 6 355 0.0 0.0 0.00 0.00 0.00 93 1020.0
20260503071538 7 355 0.0 0.0 0.00 0.00 0.00 93 1019.6
20260503054557 7 355 0.0 0.0 0.00 0.00 0.00 92 1019.5
20260503053024 7 355 0.0 0.0 0.00 0.00 0.00 92 1019.4
20260503051515 8 355 0.0 0.0 0.00 0.00 0.00 91 1019.1
20260503050057 8 355 0.0 0.0 0.00 0.00 0.00 91 1018.9
20260503044554 8 21 0.0 0.0 0.00 0.00 0.00 90 1018.5
20260503043045 8 21 0.0 0.0 0.00 0.00 0.00 90 1018.5
20260503041532 8 21 0.0 0.0 0.00 0.00 0.00 89 1018.3
20260503040019 9 21 0.0 0.0 0.00 0.00 0.00 88 1018.3